GLOBALSTAR M032 [-]

Last updated on Thu Dec 28 2023 00:02:57 GMT+0000 (Coordinated Universal Time)

1 25852U 99037B 23361.42325465 -.00000030 00000+0 11879-2 0 9997 2 25852 51.9980 36.5181 0008430 340.3853 19.6622 11.19047674 74581

Satellite not in orbit

GLOBALSTAR M032 [-]